Temperature
13 13 12 12 12 12 12 12 12 12 12 12 12 12 12 12 12 12 12 12 12 12 11 11 11 11 11 11 12 12 11 11 11 11 11 11 11 11
13 13 12 12 12 12 12 12 12 12 12 12 12 12 12 12 12 12 12 11 11 11 11 11 11 11 11 11 11 11 11 11 11 11 11 11 11 11
13 13 12 12 12 12 12 12 12 12 12 12 12 12 12 12 12 12 11 11 11 11 11 11 11 11 11 11 11 11 11 11 11 11 11 11 11 11
13 12 12 12 12 12 12 12 12 12 12 12 12 12 12 11 11 11 11 11 11 11 11 11 11 11 11 11 11 11 11 11 11 11 11 11 11 11
12 12 12 12 12 12 12 12 12 12 11 11 12 11 11 11 11 11 11 11 11 11 10 10 10 10 11 11 11 11 10 11 11 11 11 10 10 10
12 12 12 12 12 12 12 11 11 11 11 11 11 11 11 11 11 11 11 11 10 10 10 10 10 10 10 10 10 10 10 10 10 10 10 10 10 10
12 12 12 12 12 11 11 11 11 11 11 11 11 11 11 11 11 11 10 10 10 10 10 10 10 10 10 10 10 10 10 10 10 10 10 10 10 10
11 11 11 11 11 11 11 11 11 11 11 11 11 11 11 11 10 10 10 10 10 10 10 10 10 10 10 10 10 10 10 10 10 10 10 10 10 10
11 11 11 11 11 11 11 11 11 11 11 10 10 10 10 10 10 10 10 10 10 10 10 10 10 10 10 9 9 9 9 9 9 9 10 10 10 10
11 11 10 11 10 10 10 10 10 10 10 10 10 10 10 10 10 10 10 10 10 9 9 9 9 9 9 9 9 9 9 9 9 9 9 9 9 9
10 10 10 10 10 10 10 10 10 10 10 10 10 10 10 10 9 9 9 9 9 9 9 9 9 9 9 9 9 9 9 9 9 9 9 9 9 9
10 10 10 9 9 9 10 10 10 10 10 10 10 10 9 9 9 9 9 9 9 9 9 8 8 8 8 9 8 8 8 8 8 8 8 8 8 9
9 9 9 9 9 9 9 9 9 9 9 9 9 9 9 9 9 9 9 9 8 8 8 8 8 8 8 8 8 8 8 8 8 8 8 8 8 8
9 9 9 9 9 9 8 8 8 8 8 8 8 8 8 8 8 8 8 8 8 8 8 8 8 8 7 7 8 8 8 8 8 8 8 8 8 8
8 8 8 8 8 8 8 8 8 8 8 8 8 8 8 8 8 8 8 8 8 7 7 7 7 7 7 7 7 7 7 7 7 7 7 7 7 7
8 8 8 8 8 7 7 7 7 7 7 7 7 8 7 7 7 7 7 7 7 7 7 7 7 6 7 7 7 7 7 7 7 7 7 7 7 7
7 7 7 7 7 7 7 7 7 7 7 7 7 7 7 7 7 7 7 7 6 6 6 6 6 6 6 6 6 6 6 7 7 7 6 7 7 7
7 7 7 7 6 6 6 6 6 6 6 6 6 6 6 6 6 6 6 6 6 6 6 6 6 6 6 6 6 6 6 6 6 6 6 6 6 6
6 6 6 6 6 6 6 6 6 6 6 6 6 6 6 6 6 6 5 5 5 5 5 5 5 5 5 5 5 5 5 5 5 5 6 6 6 6
6 6 6 5 5 5 5 5 5 5 5 5 5 5 5 5 5 5 5 5 5 5 5 5 4 4 4 4 4 5 5 5 5 5 5 5 5 5
5 5 5 5 5 5 5 5 5 5 5 5 5 5 5 5 5 4 4 4 4 4 4 4 4 4 4 4 4 4 5 4 4 5 5 5 5 5
5 5 5 4 4 4 4 4 4 4 4 4 4 4 4 4 4 4 4 4 4 4 4 4 3 3 3 3 3 4 4 4 4 4 4 4 4 4
4 4 4 4 4 4 4 4 4 4 4 4 4 4 4 4 4 4 4 3 3 3 3 3 3 3 3 3 3 3 3 3 4 4 4 4 4 4
Wind_Speed
3 3 2 2 2 2 2 3 3 2 3 3 2 2 2 2 2 1 2 2 1 1 1 2 2 2 3 3 3 3 3 3 3 3 3 4 4 4
3 3 3 2 2 2 2 2 3 3 3 3 3 2 2 2 1 1 1 1 1 1 1 1 1 2 2 3 3 3 3 3 3 2 2 3 3 3
3 3 4 3 3 2 2 2 3 3 3 3 2 1 1 1 1 0 1 1 1 1 0 0 1 1 2 2 3 3 2 3 2 2 2 2 2 2
4 4 4 3 3 3 3 4 3 3 3 3 2 1 1 1 0 0 0 1 1 1 1 1 1 1 1 2 2 2 1 2 2 2 2 2 1 2
5 5 5 4 4 4 4 4 3 3 2 3 2 1 1 0 0 0 0 1 1 2 1 1 2 2 2 2 2 1 1 1 2 2 2 2 2 2
5 5 5 6 6 5 5 5 4 3 2 2 2 1 1 0 1 1 1 1 1 1 1 1 2 3 3 3 3 2 2 2 2 2 2 2 2 2
3 4 5 6 6 5 4 4 5 4 3 2 2 1 1 1 2 2 1 1 2 1 1 1 1 2 3 3 3 3 2 2 2 2 2 2 2 3
4 4 5 6 7 7 7 6 6 6 5 4 3 4 4 3 2 2 2 1 2 1 1 2 1 2 3 3 3 3 3 3 2 2 2 2 2 3
4 4 4 4 5 4 5 5 6 7 8 6 6 6 5 6 5 4 4 3 3 2 1 2 2 2 3 3 4 3 3 3 3 3 3 3 3 3
5 5 5 4 4 3 3 3 4 5 6 5 7 6 5 5 6 6 4 2 0 1 2 2 2 2 3 4 4 3 3 3 3 4 3 3 3 3
5 4 5 5 6 4 4 4 3 3 3 4 4 4 4 6 6 4 3 2 1 2 2 2 2 1 2 2 3 2 2 3 4 4 4 4 4 3
3 3 5 5 6 5 4 5 5 4 2 2 1 1 1 3 6 6 5 4 2 2 3 3 2 1 1 1 1 2 2 3 4 4 4 4 3 2
3 3 4 5 6 6 5 5 7 4 3 3 2 1 1 1 2 2 4 5 4 3 3 3 2 2 2 1 2 2 2 2 3 3 3 3 2 2
4 3 3 4 4 5 4 5 5 4 3 2 2 2 2 2 2 2 3 3 3 3 4 4 3 3 2 1 2 2 2 2 2 2 2 2 2 2
3 4 3 3 2 2 2 3 2 3 3 3 3 3 3 2 2 1 1 1 1 0 3 3 3 3 3 3 2 2 1 2 2 1 1 2 2 1
2 2 2 1 1 1 1 1 1 3 3 4 3 2 1 1 1 1 1 1 1 1 1 1 2 3 2 2 2 2 2 2 2 2 2 2 2 2
3 1 1 0 0 0 0 1 1 1 2 2 2 2 2 2 1 1 2 2 1 1 0 1 1 0 1 2 1 2 1 1 2 1 1 1 2 2
4 2 2 2 2 2 2 1 1 1 2 3 3 3 3 3 2 1 2 2 2 2 1 0 1 1 1 1 1 2 2 1 1 1 1 1 2 2
4 3 3 3 3 3 2 2 2 2 2 2 3 3 3 3 3 3 2 2 2 2 2 1 1 1 1 2 2 2 2 1 1 1 1 1 2 2
3 3 3 3 3 3 3 3 2 2 2 2 2 3 3 3 3 3 3 3 3 2 1 1 2 3 3 3 2 2 2 1 2 2 1 1 1 2
3 3 3 3 3 3 3 3 3 3 3 3 3 3 3 3 4 4 4 4 3 3 3 3 4 3 1 1 0 1 2 1 2 1 2 1 1 1
3 3 3 3 3 3 3 3 3 3 3 3 3 3 3 3 4 5 4 4 4 4 3 2 1 1 1 2 2 2 1 2 2 2 1 1 2 2
3 3 3 3 3 3 3 4 4 4 4 3 3 3 3 4 4 4 4 4 4 3 2 2 1 1 2 2 1 1 1 1 0 1 2 2 1 1
Wind_Direction
213 207 212 220 202 197 182 174 169 228 269 262 274 285 286 280 283 293 304 319 336 6 18 38 36 31 21 17 11 13 18 13 13 16 21 24 28 29
218 208 222 227 214 199 195 196 185 188 237 253 245 271 280 291 277 246 271 314 338 339 360 18 26 16 2 3 11 13 22 22 19 10 13 21 24 22
230 217 230 222 215 214 201 198 198 185 228 270 252 264 241 265 337 349 313 314 323 327 339 347 15 4 352 352 359 359 4 11 10 1 359 359 6 15
229 225 235 224 220 217 211 214 214 205 204 242 260 252 256 232 215 147 310 297 291 300 303 292 287 301 311 326 331 336 354 7 2 344 333 333 347 351
226 222 230 222 230 224 220 221 222 218 203 209 242 237 264 258 65 4 358 327 301 294 281 274 279 272 277 281 282 274 294 331 337 333 337 325 319 308
237 230 228 219 227 223 222 220 210 198 194 197 220 215 219 227 144 189 296 304 291 306 293 276 284 284 270 266 259 252 256 271 303 309 315 312 305 297
253 247 240 234 229 223 227 215 197 192 192 199 212 203 211 195 212 205 226 284 287 259 301 303 308 309 300 275 260 254 258 266 275 286 285 289 290 289
252 262 259 244 243 236 237 222 200 195 198 201 211 216 221 214 197 192 179 182 265 239 191 280 250 274 280 266 260 264 273 272 273 273 275 275 281 283
235 248 262 260 245 234 241 232 223 217 202 199 210 219 212 205 188 193 199 207 227 213 166 248 250 261 274 263 258 261 267 267 270 271 270 264 267 273
235 233 241 256 251 231 222 232 240 235 222 212 216 220 215 198 193 195 194 188 231 221 174 211 229 251 280 284 260 252 262 263 271 280 274 261 258 264
246 236 231 236 248 230 204 216 240 256 240 226 227 218 211 200 185 155 159 170 229 231 193 192 214 263 270 258 269 263 272 284 282 280 274 262 253 260
256 250 240 240 246 223 207 208 221 237 217 213 219 130 162 187 180 182 182 185 191 221 201 182 194 164 270 268 272 285 289 290 287 283 280 266 246 233
237 246 247 247 243 233 225 221 226 211 191 185 187 170 131 153 190 201 195 187 191 217 196 174 184 183 191 248 273 270 268 286 296 300 296 282 251 215
227 234 239 243 243 238 231 230 220 190 174 171 182 198 199 212 227 220 206 201 200 208 193 177 181 186 180 207 252 262 270 269 267 276 302 301 279 259
219 220 228 226 233 233 235 231 199 181 177 183 201 214 214 208 192 186 95 123 99 146 171 185 182 178 179 201 221 232 256 266 255 257 282 286 275 284
205 193 180 166 191 224 271 245 193 189 187 198 210 208 182 166 167 166 171 129 94 7 31 149 181 169 177 207 208 238 237 223 245 271 275 277 284 259
159 127 110 136 219 301 301 253 218 194 199 203 192 184 182 185 188 167 156 149 167 194 339 1 20 154 182 182 206 229 232 255 246 242 246 280 301 287
151 168 189 197 208 215 217 234 234 224 219 201 191 190 191 194 193 172 155 172 188 195 198 221 44 49 34 334 238 213 216 238 275 252 210 228 282 301
164 186 195 202 208 207 209 216 233 235 217 205 200 201 197 195 185 183 184 188 197 194 198 180 156 142 197 264 286 233 211 243 241 244 237 229 261 286
192 198 203 204 202 202 207 212 219 222 209 210 209 203 197 194 192 194 196 202 201 195 201 198 198 203 213 225 244 279 269 221 209 221 242 266 318 321
208 206 205 203 204 206 209 210 210 213 213 210 212 209 205 198 201 204 204 206 197 195 209 228 236 229 210 138 190 286 302 285 202 209 210 213 295 339
208 214 218 214 211 209 208 206 208 212 211 214 215 210 209 205 208 206 205 202 205 209 215 223 196 163 163 198 235 255 294 342 13 47 84 160 184 204
215 219 223 217 211 207 207 209 211 216 215 218 219 209 205 209 214 213 208 202 200 204 199 193 186 189 203 208 221 247 246 284 344 25 2 2 357 250
Height
1528 1528 1529 1529 1529 1530 1530 1530 1530 1528 1528 1528 1528 1528 1528 1528 1528 1528 1528 1527 1527 1527 1527 1527 1527 1527 1526 1526 1526 1526 1525 1525 1525 1525 1525 1525 1525 1525
1525 1526 1526 1526 1527 1527 1527 1527 1527 1527 1526 1525 1526 1526 1526 1526 1526 1526 1526 1526 1526 1526 1526 1526 1526 1525 1525 1525 1525 1524 1524 1524 1524 1524 1524 1524 1524 1524
1522 1522 1523 1523 1523 1524 1524 1524 1525 1525 1524 1523 1523 1524 1524 1524 1524 1524 1524 1524 1524 1524 1524 1524 1524 1524 1524 1523 1523 1523 1523 1522 1522 1522 1523 1523 1523 1523
1518 1518 1519 1519 1520 1520 1521 1521 1521 1522 1521 1521 1521 1521 1521 1522 1522 1522 1522 1522 1522 1522 1522 1522 1522 1522 1522 1521 1521 1521 1521 1521 1521 1521 1521 1521 1521 1521
1514 1515 1515 1515 1516 1516 1517 1517 1518 1518 1518 1518 1518 1518 1518 1519 1519 1519 1520 1520 1520 1520 1520 1520 1520 1520 1520 1519 1519 1519 1519 1519 1519 1519 1519 1519 1519 1519
1511 1511 1511 1511 1512 1512 1512 1513 1513 1514 1514 1514 1514 1515 1515 1515 1516 1516 1517 1517 1517 1518 1518 1518 1518 1517 1517 1517 1517 1517 1517 1517 1516 1516 1516 1517 1517 1516
1506 1506 1507 1507 1508 1508 1509 1509 1509 1510 1510 1510 1511 1511 1511 1512 1512 1513 1513 1514 1515 1515 1515 1515 1515 1515 1515 1514 1514 1514 1514 1514 1514 1514 1514 1514 1514 1514
1502 1502 1502 1503 1503 1504 1504 1505 1505 1505 1506 1506 1506 1507 1507 1508 1509 1510 1510 1511 1511 1512 1511 1512 1512 1512 1512 1511 1511 1511 1511 1511 1511 1511 1511 1511 1511 1511
1497 1497 1498 1498 1499 1499 1500 1500 1500 1501 1501 1502 1502 1503 1504 1505 1505 1506 1507 1507 1507 1508 1508 1508 1508 1508 1509 1508 1508 1508 1508 1508 1508 1508 1508 1508 1508 1508
1493 1493 1493 1494 1494 1494 1495 1495 1496 1496 1496 1497 1498 1499 1500 1501 1501 1503 1503 1504 1504 1504 1505 1504 1504 1505 1505 1505 1505 1505 1505 1505 1505 1505 1505 1505 1505 1504
1488 1488 1489 1489 1490 1490 1490 1490 1491 1492 1493 1493 1494 1494 1495 1496 1497 1498 1498 1499 1499 1500 1500 1500 1500 1500 1501 1501 1501 1501 1502 1502 1502 1501 1501 1501 1501 1501
1483 1483 1484 1484 1485 1485 1485 1486 1486 1487 1488 1488 1489 1490 1490 1491 1492 1493 1494 1494 1495 1495 1496 1497 1496 1497 1496 1497 1497 1498 1498 1498 1498 1498 1498 1498 1498 1497
1477 1477 1478 1479 1480 1480 1480 1481 1481 1483 1483 1484 1485 1485 1486 1487 1488 1489 1489 1490 1491 1492 1492 1492 1492 1493 1493 1493 1493 1494 1494 1494 1494 1494 1494 1494 1494 1494
1472 1473 1473 1474 1475 1475 1476 1476 1477 1478 1478 1479 1480 1480 1481 1482 1483 1484 1485 1486 1487 1488 1489 1489 1489 1489 1489 1489 1489 1489 1490 1490 1490 1490 1490 1490 1490 1490
1467 1468 1469 1469 1470 1470 1471 1472 1472 1472 1473 1474 1474 1475 1477 1478 1479 1480 1481 1482 1483 1483 1484 1484 1485 1485 1486 1486 1485 1486 1486 1486 1486 1486 1486 1486 1486 1486
1463 1463 1464 1464 1465 1465 1466 1467 1467 1468 1469 1469 1470 1471 1473 1474 1475 1476 1476 1477 1478 1479 1480 1480 1480 1481 1481 1482 1482 1482 1482 1482 1482 1483 1483 1483 1483 1483
1458 1459 1459 1460 1460 1461 1462 1462 1463 1464 1465 1465 1466 1467 1468 1469 1470 1471 1472 1473 1473 1474 1475 1476 1477 1477 1478 1478 1478 1479 1479 1479 1479 1479 1479 1479 1479 1479
1454 1454 1454 1455 1456 1457 1457 1458 1459 1460 1460 1461 1462 1463 1464 1465 1466 1467 1468 1469 1469 1470 1471 1472 1472 1473 1474 1474 1475 1475 1476 1476 1476 1476 1476 1475 1475 1476
1449 1449 1450 1451 1452 1453 1453 1454 1455 1456 1456 1457 1458 1459 1460 1461 1462 1463 1464 1465 1466 1467 1467 1468 1468 1468 1469 1470 1471 1472 1472 1472 1472 1472 1473 1473 1473 1473
1444 1445 1446 1447 1448 1448 1449 1450 1451 1452 1452 1453 1454 1455 1456 1457 1458 1459 1460 1461 1462 1463 1464 1464 1465 1466 1466 1467 1468 1468 1469 1469 1469 1469 1470 1470 1470 1471
1440 1441 1442 1443 1444 1444 1445 1446 1447 1447 1448 1449 1450 1451 1452 1453 1454 1455 1456 1457 1458 1459 1459 1460 1462 1463 1464 1465 1465 1464 1465 1466 1467 1467 1467 1467 1467 1466
1437 1437 1438 1439 1440 1440 1441 1442 1442 1443 1443 1444 1445 1446 1447 1448 1450 1451 1452 1453 1453 1455 1456 1457 1458 1459 1460 1460 1460 1460 1461 1463 1463 1464 1464 1464 1464 1463
1433 1434 1435 1435 1436 1437 1437 1438 1438 1439 1439 1440 1440 1441 1443 1444 1445 1447 1448 1449 1450 1451 1452 1453 1454 1455 1456 1456 1457 1457 1458 1458 1459 1459 1460 1461 1462 1462